Tracking 19576 objects as of 17-Feb-2019
HD Live streaming from Space Station
objects crossing your sky now

COSMOS 2419 (GLONASS)

Track COSMOS 2419 (GLONASS) now!
COSMOS 2419 (GLONASS) is classified as:


NORAD ID: 28915
Int'l Code: 2005-050A
Perigee: 19,092.1 km
Apogee: 19,181.2 km
Inclination: 65.8 °
Period: 675.7 minutes
Semi major axis: 25507 km
RCS: 3.2413 m2 (large)
Launch date: December 25, 2005
Source: Commonwealth of Independent States (former USSR) (CIS)
Launch site: TYURATAM MISSILE AND SPACE COMPLEX (TTMTR)
aabbcc
Your satellite tracking list
Your tracking list is empty




NASA's NSSDC Master Catalog

Two Line Element Set (TLE):
1 28915U 05050A   19047.87323263 +.00000005 +00000-0 +00000-0 0  9995
2 28915 065.7872 045.3712 0017479 339.9709 200.1740 02.13106919102315
Source of the keplerian elements: AFSPC